Zurück zum Katalog

COSMOS 1275 DEB

AktivPO
NORAD 12654·DEBRIS·🇷🇺 Russia

Gestartet Jun 4, 1981 von Plesetsk Cosmodrome

Loading…

Nächste Überflüge (nächste 24 Stunden)

TLE

AktuellSource: Space-Track

Epoche: Sep 14, 2026, 11:18 UTC

1 12654U 81053J   26257.47150615  .00000553  00000-0  30649-3 0  9994
2 12654  82.9834 150.3449 0045822 353.9043 125.1608 14.09114643300670

Verfolge COSMOS 1275 DEB in Echtzeit mit AllMySat

Download on the App Store